Flag for Poland Weather past 2 weeks in Warsaw, Poland

Now
77 °F

Passing clouds.


Feels Like: 79 °F
Forecast: 64 / 79 °F
Wind: 12 mph from North

Location: Warsaw Okecie Airport

Current Time: Jul 23, 2014 at 4:56:42 PM

Latest Report: Jul 23, 2014 at 4:30 PM


Visibility: N/A

Pressure: 29.95 "Hg

Humidity: 54%

Dew point: 59 °F

Location of WarsawLocation

Historic Weather in Warsaw — Graph

°F

Warsaw temperature yesterday

Maximum temperature yesterday: 81 °F (at 2:30 PM)
Minimum temperature yesterday: 63 °F (at 4:30 AM)
Average temperature yesterday: 72 °F

Past Weeks' High & Low Weather Summary

 TemperatureHumidityPressure
High86 °F (Jul 8, 3:00 PM)100% (Jul 11, 12:00 AM)30.15 "Hg (Jul 11, 12:00 AM)
Low55 °F (Jul 13, 4:30 AM)32% (Jul 19, 5:00 PM)29.65 "Hg (Jul 9, 3:00 PM)
Average70 °F71%29.92 "Hg
* Reported Jul 8 3:00 PM — Jul 23 3:30 PM, Warsaw, Weather by CustomWeather, © 2014

Note: Actual official high and low records may vary slightly from our data, if they occured in-between our weather recording intervals... More about our weather records

Advertising

Warsaw weather history for previous 24 hours

 ConditionsComfort  
Time TempWeatherWind HumidityBarometerVisibility
3:30 PM
Jul 23
75 °FPassing clouds.12 mph57%29.98 "HgN/A
3:00 PM75 °FPassing clouds.13 mph54%29.98 "HgN/A
2:30 PM73 °FPassing clouds.10 mph57%29.98 "HgN/A
2:00 PM73 °FPassing clouds.12 mph57%30.01 "HgN/A
1:30 PM73 °FPassing clouds.16 mph57%30.01 "HgN/A
1:00 PM75 °FThunderstorms. Scattered clouds.9 mph57%30.01 "HgN/A
12:00 PM77 °FThunderstorms. Scattered clouds.14 mph51%30.01 "HgN/A
11:30 AM77 °FScattered clouds.10 mph54%30.01 "HgN/A
11:00 AM77 °FPassing clouds.9 mph61%30.01 "HgN/A
10:00 AM73 °FPassing clouds.12 mph61%30.01 "HgN/A
8:00 AM68 °FPassing clouds.10 mph69%30.01 "HgN/A
7:30 AM66 °FSunny.7 mph73%30.01 "Hg10 mi
7:00 AM66 °FSunny.8 mph78%30.01 "Hg10 mi
6:30 AM64 °FSunny.9 mph78%30.01 "Hg10 mi
6:00 AM63 °FSunny.9 mph83%30.01 "Hg10 mi
5:30 AM63 °FClear.5 mph83%30.01 "Hg10 mi
5:00 AM63 °FClear.6 mph83%30.01 "Hg10 mi
4:30 AM63 °FClear.5 mph83%30.01 "Hg10 mi
4:00 AM63 °FClear.7 mph83%30.01 "Hg10 mi
3:30 AM64 °FClear.7 mph78%29.98 "Hg10 mi
3:00 AM64 °FClear.8 mph78%30.01 "Hg10 mi
2:30 AM66 °FClear.8 mph73%30.01 "Hg10 mi
2:00 AM66 °FClear.9 mph68%30.01 "Hg10 mi
7:00 PM
Jul 22
79 °FSunny.8 mph39%29.95 "Hg10 mi
6:30 PM77 °FPassing clouds.9 mph44%29.95 "HgN/A
6:00 PM79 °FSunny.8 mph45%29.95 "Hg10 mi
5:30 PM79 °FPassing clouds.13 mph45%29.95 "HgN/A
5:00 PM79 °FSunny.10 mph45%29.95 "Hg10 mi
4:30 PM81 °FPassing clouds.9 mph42%29.95 "HgN/A
4:00 PM79 °FPassing clouds.12 mph42%29.95 "HgN/A
Weather by CustomWeather, © 2014

See weather overviewHow to use our weather pages